Regional Weather Roundup
Issued by NWS Upton, NY

Current Version | Previous Version | Graphics & Text | Print | Product List | Glossary Off
Versions: 1 2 3 4 5 6 7 8 9 10 11 12 13 14 15 16 17 18 19 20 21 22 23 24 25 26 27 28

000
ASUS41 KOKX 182008
RWROKX

REGIONAL WEATHER ROUNDUP
NATIONAL WEATHER SERVICE NEW YORK NY
300 PM EST SAT FEB 18 2017

NOTE: "FAIR" INDICATES FEW OR NO CLOUDS BELOW 12,000 FEET WITH NO
SIGNIFICANT WEATHER AND/OR OBSTRUCTIONS TO VISIBILITY.

NYZ071-072-176-178-NJZ106-104-182100-
NEW YORK CITY METRO AREA

CITY           SKY/WX    TMP DP  RH WIND       PRES   REMARKS
Central Park   SUNNY     61  32  33 MISG      29.69F
Wall St Helipt NOT AVBL
LaGuardia APRT PTSUNNY   63  31  30 SW12      29.67F
Kennedy INTL   PTSUNNY   52  40  63 S9        29.70F
Breezy Point     N/A     46 N/A N/A S7          N/A
Newark/Liberty CLOUDY    65  32  29 SW14G22   29.67F
Teterboro      CLOUDY    64  34  32 SW10G21   29.67S
$$

NYZ177-179-078>081-182100-
LONG ISLAND NEW YORK

CITY           SKY/WX    TMP DP  RH WIND       PRES   REMARKS
Jones Beach      N/A     46 N/A N/A SW10G16     N/A
Matinecock PT    N/A     54 N/A N/A SW14        N/A
Farmingdale    SUNNY     52  37  56 SW10      29.69F
MacArthur/ISP  PTSUNNY   50  37  61 SW13      29.69S
Shirley        SUNNY     48  37  65 SW12      29.70S
Westhampton    SUNNY     47  38  71 SW14G24   29.70F
Southampton    NOT AVBL
Bridgehampton  NOT AVBL
East Hampton     N/A     47  39  73 SW15G23   29.68S
Montauk          N/A     48  39  71 SW14G22   29.67F
$$

NYZ052-065-067-182100-
HUDSON VALLEY

CITY           SKY/WX    TMP DP  RH WIND       PRES   REMARKS
White Plains   CLOUDY    58  30  34 SW6       29.65F
Newburgh       PTSUNNY   55  32  41 W12G18    29.64F
Montgomery     CLOUDY    53  30  41 SW13      29.62F
Poughkeepsie   MOSUNNY   54  28  36 SW10      29.62F
Albany         MOSUNNY   47  25  42 S7        29.57F
$$

NJZ001-105-106-008-010-013-015-019>022-104-182100-
NEW JERSEY

CITY           SKY/WX    TMP DP  RH WIND       PRES   REMARKS
Newark/Liberty CLOUDY    65  32  29 SW14G22   29.67F
Teterboro      CLOUDY    64  34  32 SW10G21   29.67S
Caldwell       CLOUDY    63  32  31 SW6       29.67F
Somerville     SUNNY     66  33  29 SW8       29.67S
Linden           N/A     65  32  29 W8G17     29.68F
Sussex         CLOUDY    56  31  38 SW9       29.66S
Andover          N/A     56  31  38 VRB7G16   29.67S
Trenton        SUNNY     65  35  33 SW13      29.70F
Millville      MOSUNNY   64  39  39 VRB6      29.74F
Atlantic City  MOSUNNY   66  35  31 SW14      29.74F
Wrightstown    CLOUDY    66  33  29 SW20G25   29.68F
Toms River     SUNNY     67  34  29 SW20G30   29.71F
Belmar         SUNNY     67  33  28 SW16G23   29.70F
$$

PAZ047>061-062-071-182100-
EASTERN PENNSYLVANIA

CITY           SKY/WX    TMP DP  RH WIND       PRES   REMARKS
Philadelphia   CLOUDY    66  34  30 SW16      29.72F
Allentown      SUNNY     66  33  29 SW14G25   29.68F
Scranton       CLOUDY    60  34  37 SW15G22   29.65S
$$

CTZ002-004>006-009-010-012-RIZ004-006-007-MAZ004-011-015-182100-
SOUTHERN NEW ENGLAND
 IN CT

CITY           SKY/WX    TMP DP  RH WIND       PRES   REMARKS
Bradley INTL   MOSUNNY   51  26  37 S8        29.60F
Hartford       SUNNY     50  26  39 S14       29.62F
Danbury        SUNNY     53  28  38 SW10      29.65F
Wtrbury/Oxford PTSUNNY   54  27  35 W7        29.64F
Bridgeport     SUNNY     48  30  49 SW6       29.67F
Meriden        SUNNY     52  26  36 S8        29.63F
New Haven      PTSUNNY   44  32  62 S6        29.67F
Chester          N/A     50  27  40 SW10      29.65S
Groton         SUNNY     44  35  70 SW8       29.66F
Wilimantic     SUNNY     51  26  37 S9        29.63F

 IN RI

CITY           SKY/WX    TMP DP  RH WIND       PRES   REMARKS
Providence     MOSUNNY   47  27  45 SW16      29.63F
Block Island   SUNNY     46  39  76 SW15G23   29.67F
Westerly       SUNNY     47  33  58 SW9       29.67F
 IN MA

CITY           SKY/WX    TMP DP  RH WIND       PRES   REMARKS
Boston         MOSUNNY   48  26  42 SW21      29.58F
Worcester      SUNNY     48  23  37 SW18      29.56F
Westfield      SUNNY     51  27  39 S14       29.57F
Provincetown   SUNNY     45  33  63 SW21G28   29.63F
Nantucket      SUNNY     44  36  73 S13       29.69F
$$

ANZ330-335-338-340-345-350-353-355-182100-
COASTAL MARINE OBSERVATIONS


STATION/POSITION TIME  SKY/WX   TEMP    WIND        PRES    VSBY  WAVE
                                AIR SEA DIR/SP/G                  HT/PER
                 (UTC)          (F)     (DEG/KT/KT) (MB)    (MI)  (FT/S)
NY HARB ENTRANCE 1850            44 42  200/ 12/ 14 1005.9          2/ 3
20 S FIRE ISLAND 1950            44 41  210/ 14/ 17 1005.7          3/ 4
GREAT SOUTH BAY  NOT AVBL
23 SSW MONTAUK P 1850            47 45              1006.5          3/ 4
15 E BARNEGAT LI 1930               42                N/A           2/ 3
HUDSON CANYON    1850               51              1007.6          3/ 5
KINGS POINT      1942            51 37              1004.6
EXECUTION ROCKS  NOT AVBL
CENTRAL LI SOUND 1930            43     230/  4/  6   N/A           1/ 3
EASTERN LI SOUND NOT AVBL
ROBBINS REEF     1942            62     250/ 14/ 17 1005.1
$$


>>>>>>>>>>>>>>>>>>>>>>>>>>>> KEY <<<<<<<<<<<<<<<<<<<<<<<<<<<
>                                                          <
>     SKY/WX - Sky Condition/Present Weather               <
>     TMP    - Temperature in Fahrenheit                   <
>     DP     - Dew Point in Fahrenheit                     <
>     RH     - Relative Humidity in Percent                <
>     WIND   - Direction (from) and Speed in MPH           <
>     PRES   - Mean Sea Level Pressure (inches of Hg)      <
>     WCI    - Wind Chill Index                            <
>     VSB    - VISIBILITY IN MILES                         <
>     HX     - HEAT INDEX                                  <
>     TC     - TEMPERATURE IN CELSIUS                      <
>     VRB    - VARIABLE WIND DIRECTION                     <
>                                                          <
>>>>>>>>>>>>>>>>>>>>>>>>>>>> KEY <<<<<<<<<<<<<<<<<<<<<<<<<<<




USA.gov is the U.S. government's official web portal to all federal, state and local government web resources and services.